Location: Newark
(35.2672°N, 80.7344°W)
Time: 23:35:02
(UTC+00:00)

Tiros 1 - Visible Passes

Search period start: 18 January 2020 00:00
Search period end: 28 January 2020 00:00
Orbit: 630 x 664 km, 48.4° (Epoch: 18 January)

Date Brightness Start Highest point End Pass type
(mag) Time Alt. Az. Time Alt. Az. Time Alt. Az.
18 Jan 9.0 00:17:10 10° NW 00:20:22 17° N 00:20:30 17° N visible
18 Jan 9.1 23:00:21 10° NW 23:03:28 17° N 23:06:36 10° NE visible
19 Jan 9.1 00:43:19 10° NW 00:45:32 19° N 00:45:32 19° N visible
19 Jan 9.0 23:27:05 10° NW 23:30:13 17° N 23:32:56 11° NE visible
20 Jan 9.4 01:09:13 10° NW 01:10:37 18° NNW 01:10:37 18° NNW visible
20 Jan 8.7 23:53:17 10° NW 23:56:56 21° NNE 23:58:05 19° NE visible
21 Jan 9.9 01:35:05 10° NW 01:35:46 14° NW 01:35:46 14° NW visible
22 Jan 8.1 00:19:11 10° NW 00:23:19 31° NNE 00:23:19 31° NNE visible
22 Jan 8.7 23:03:14 10° NW 23:06:48 20° NNE 23:10:24 10° ENE visible
23 Jan 7.8 00:45:03 10° NW 00:48:40 46° NNW 00:48:40 46° NNW visible
23 Jan 8.2 23:29:09 10° NW 23:33:22 30° NNE 23:36:28 16° ENE visible
24 Jan 8.4 01:11:05 10° WNW 01:14:10 38° WNW 01:14:10 38° WNW visible
24 Jan 7.3 23:55:00 10° NW 23:59:42 54° NNE 00:02:08 26° E visible
25 Jan 9.5 01:37:39 10° WNW 01:39:52 21° W 01:39:52 21° W visible
26 Jan 7.3 00:21:01 10° WNW 00:25:48 72° SW 00:28:04 31° SE visible
26 Jan 7.5 23:04:58 10° NW 23:09:37 50° NNE 23:14:17 10° ESE visible
27 Jan 8.9 00:47:30 10° WNW 00:51:40 30° SW 00:54:19 18° S visible
27 Jan 7.3 23:30:57 10° NW 23:35:45 78° SW 23:40:32 10° SE visible
